Location: Jangalapalle
(16.8036°N, 80.6370°E)
Time: 11:03:44
(UTC+00:00)

Cosmos 2084 Rocket - Pass Details

Date: 05 August 2024
Orbit: 519 x 620 km, 62.8° (Epoch: 08 September)

Event Time Altitude Azimuth Distance (km) Brightness Sun altitude
Rises 13:24:02 0° 329° (NNW) 2,631 7.7 -4.5°
Reaches altitude 10° 13:26:13 10° 326° (NW) 1,742 6.8 -5.0°
Maximum altitude 13:30:04 61° 245° (WSW) 590 3.7 -5.9°
Drops below altitude 10° 13:33:56 10° 165° (SSE) 1,756 5.6 -6.7°
Sets 13:36:09 0° 162° (SSE) 2,654 6.4 -7.2°
